BAW221 EBOS-EGLL

Flight info

Callsign BAW221
Flight time N/A
Altitude 18000
Route SASK8M SASKI L608 LOGAN LOGA2H
Aircraft A319/M-SDE3FGHIRWY/LB1

Departure

Time 2026-05-04 13:30
Airport Ostend-Bruges International Airport (EBOS)

Arrival

Time N/A
Airport London Heathrow Airport (EGLL)
Time Latitude Longitude Altitude Speed Heading
2026-05-04 13:04 51.20336 2.86887 22 ft 0 kts 346°
2026-05-04 13:15 51.20324 2.86892 22 ft 3 kts 346°
2026-05-04 13:15 51.20299 2.86902 22 ft 3 kts 350°
2026-05-04 13:15 51.20276 2.86890 22 ft 3 kts 46°
2026-05-04 13:15 51.20269 2.86870 21 ft 0 kts 74°
2026-05-04 13:25 51.20272 2.86899 22 ft 14 kts 86°
2026-05-04 13:26 51.20203 2.87124 19 ft 22 kts 159°
2026-05-04 13:26 51.20096 2.87088 19 ft 17 kts 253°
2026-05-04 13:26 51.20070 2.86891 17 ft 19 kts 261°
2026-05-04 13:26 51.20037 2.86680 16 ft 19 kts 255°
2026-05-04 13:27 51.20005 2.86450 12 ft 22 kts 254°
2026-05-04 13:27 51.19966 2.86217 12 ft 22 kts 257°
2026-05-04 13:27 51.19931 2.85986 14 ft 21 kts 255°
2026-05-04 13:27 51.19896 2.85755 13 ft 21 kts 257°
2026-05-04 13:28 51.19861 2.85523 13 ft 21 kts 258°
2026-05-04 13:28 51.19812 2.85305 12 ft 18 kts 218°
2026-05-04 13:28 51.19775 2.85273 12 ft 0 kts 194°
2026-05-04 13:28 51.19775 2.85272 12 ft 0 kts 194°
2026-05-04 13:29 51.19762 2.85267 12 ft 3 kts 195°
2026-05-04 13:29 51.19678 2.85287 12 ft 23 kts 136°
2026-05-04 13:29 51.19727 2.85731 12 ft 73 kts 75°
2026-05-04 13:29 51.19903 2.86882 15 ft 137 kts 74°
2026-05-04 13:30 51.20118 2.88503 351 ft 156 kts 78°
2026-05-04 13:30 51.20318 2.90208 1002 ft 156 kts 75°
2026-05-04 13:30 51.20557 2.91785 1832 ft 145 kts 73°
2026-05-04 13:30 51.20849 2.93346 2258 ft 154 kts 61°
2026-05-04 13:31 51.21689 2.94357 2564 ft 167 kts
2026-05-04 13:31 51.22823 2.93786 2902 ft 186 kts 323°
2026-05-04 13:31 51.23828 2.92286 3242 ft 210 kts 316°
2026-05-04 13:31 51.24903 2.90613 3810 ft 225 kts 317°
2026-05-04 13:32 51.26091 2.88852 4350 ft 242 kts 318°
2026-05-04 13:32 51.27386 2.87013 4911 ft 260 kts 319°
2026-05-04 13:32 51.28771 2.85102 5684 ft 270 kts 320°
2026-05-04 13:32 51.30193 2.83171 6605 ft 273 kts 320°
2026-05-04 13:33 51.31651 2.81206 7529 ft 276 kts 320°
2026-05-04 13:33 51.33107 2.79250 8437 ft 279 kts 320°
2026-05-04 13:33 51.34600 2.77249 9320 ft 282 kts 320°
2026-05-04 13:33 51.36090 2.75247 10145 ft 287 kts 320°
2026-05-04 13:34 51.37638 2.73162 10764 ft 299 kts 319°
2026-05-04 13:34 51.39266 2.70971 11184 ft 316 kts 319°
2026-05-04 13:34 51.40990 2.68651 11548 ft 335 kts 319°
2026-05-04 13:34 51.42814 2.66194 11896 ft 353 kts 319°
2026-05-04 13:35 51.44746 2.63595 12297 ft 367 kts 319°
2026-05-04 13:35 51.48466 2.57914 13653 ft 376 kts 301°
2026-05-04 13:35 51.49600 2.54192 14334 ft 377 kts 292°
2026-05-04 13:36 51.50594 2.50237 14956 ft 383 kts 291°
2026-05-04 13:36 51.51587 2.46298 15595 ft 387 kts 292°
2026-05-04 13:36 51.52632 2.42294 16263 ft 390 kts 292°
2026-05-04 13:36 51.53199 2.40166 16607 ft 392 kts 292°